EW7290 Weather Reports


time (UTC)temp
C
wind
direction
speed
KPH
gust
KPH
rain 1hr
cm
rain 24hr
cm
rain mn
cm
humidity
%
barometer
mb
20260906200057 25 163 22.5 37.0 0.00 0.97 0.97 72 1009.2
20260906194544 25 165 22.5 35.4 0.00 0.97 0.97 73 1009.3
20260906193039 25 176 22.5 30.6 0.00 0.97 0.97 70 1009.6
20260906191557 24 137 22.5 30.6 0.00 0.97 0.97 71 1009.8
20260906190105 25 119 22.5 27.4 0.00 0.97 0.97 69 1010.1
20260906184549 25 119 16.1 25.7 0.00 0.97 0.97 71 1010.4
20260906183035 23 105 9.7 17.7 0.00 0.97 0.97 77 1010.7
20260906181537 22 91 9.7 17.7 0.00 0.97 0.97 82 1011.0
20260906180002 21 70 11.3 20.9 0.03 0.97 0.97 86 1011.4
20260906174554 20 61 12.9 20.9 0.05 0.97 0.97 90 1012.0
20260906173037 20 70 14.5 20.9 0.08 0.97 0.97 91 1012.9
20260906171519 20 94 14.5 27.4 0.10 0.97 0.97 93 1013.7
20260906170008 20 74 19.3 33.8 0.20 0.94 0.94 93 1014.8
20260906164536 20 90 16.1 29.0 0.28 0.91 0.91 94 1014.7
20260906163056 20 111 16.1 29.0 0.25 0.89 0.89 93 1014.7
20260906161538 20 87 22.5 33.8 0.25 0.86 0.86 93 1014.0
20260906160021 20 85 27.4 43.5 0.15 0.71 0.71 90 1014.3
20260906154503 21 69 14.5 19.3 0.08 0.64 0.64 88 1013.5
20260906153043 21 67 0.0 4.8 0.08 0.64 0.64 89 1012.1
20260906151528 21 277 6.4 12.9 0.05 0.61 0.61 88 1011.5
20260906150014 21 310 9.7 14.5 0.08 0.58 0.58 87 1011.3
20260906144614 21 323 9.7 22.5 0.08 0.56 0.56 88 1010.8
20260906143101 20 314 12.9 22.5 0.10 0.56 0.56 89 1010.6
20260906141502 20 309 11.3 20.9 0.10 0.56 0.56 88 1010.6
20260906140021 21 275 14.5 25.7 0.08 0.51 0.51 87 1010.8
20260906134509 21 253 16.1 22.5 0.05 0.48 0.48 87 1010.8
20260906133119 21 272 12.9 22.5 0.03 0.46 0.46 88 1010.3
20260906131545 21 180 11.3 16.1 0.03 0.46 0.46 84 1009.4
20260906130042 22 166 14.5 19.3 0.05 0.43 0.43 81 1009.4
20260906124604 21 189 14.5 24.1 0.36 0.43 0.43 82 1009.3
20260906123051 21 207 12.9 24.1 0.43 0.43 0.43 86 1009.3
20260906121537 21 211 20.9 35.4 0.43 0.43 0.43 87 1009.2
20260906120025 21 217 32.2 45.1 0.36 0.36 0.36 87 1009.4
20260906114554 23 217 20.9 40.2 0.08 0.08 0.08 86 1010.1
20260906113109 23 198 20.9 29.0 0.00 0.00 0.00 91 1009.7
20260906111549 23 191 16.1 25.7 0.00 0.00 0.00 92 1009.3
20260906110037 23 202 12.9 19.3 0.00 0.00 0.00 93 1009.1
20260906104528 23 163 11.3 16.1 0.00 0.00 0.00 92 1008.5
20260906103047 23 142 11.3 14.5 0.00 0.00 0.00 92 1008.3
20260906101530 23 168 11.3 17.7 0.00 0.00 0.00 92 1008.4
20260906100015 23 192 11.3 16.1 0.00 0.00 0.00 92 1008.6
20260906094513 23 164 11.3 17.7 0.00 0.00 0.00 92 1008.6
20260906093126 23 149 12.9 16.1 0.00 0.00 0.00 93 1008.7
20260906091503 23 156 11.3 17.7 0.00 0.00 0.00 93 1008.6
20260906090031 23 142 9.7 14.5 0.00 0.00 0.00 93 1008.5
20260906084510 23 146 8.0 12.9 0.00 0.00 0.00 92 1008.7
20260906083102 23 131 6.4 11.3 0.00 0.00 0.00 92 1008.8
20260906081545 23 145 8.0 12.9 0.00 0.00 0.00 92 1009.0
20260906080039 23 138 8.0 14.5 0.00 0.00 0.00 92 1009.1
20260906074527 23 132 9.7 14.5 0.00 0.00 0.00 92 1009.2
20260906073035 23 142 9.7 16.1 0.00 0.00 0.00 92 1009.1
20260906071520 23 144 9.7 14.5 0.00 0.00 0.00 92 1008.9
20260906070007 23 137 9.7 14.5 0.00 0.00 0.00 92 1008.9
20260906064522 23 129 6.4 14.5 0.00 0.00 0.00 92 1009.0
20260906063039 23 150 9.7 14.5 0.00 0.00 0.00 92 1008.9
20260906061527 23 146 11.3 16.1 0.00 0.00 0.00 92 1009.1
20260906060010 23 142 11.3 19.3 0.00 0.00 0.00 91 1009.2
20260906054609 23 139 12.9 19.3 0.00 0.00 0.00 91 1009.2
20260906053046 23 119 12.9 19.3 0.00 0.00 0.00 91 1009.0
20260906051546 23 134 12.9 19.3 0.00 0.00 0.00 90 1008.8
20260906050017 23 135 14.5 19.3 0.00 0.00 0.00 90 1008.7
20260906044504 23 134 12.9 16.1 0.00 0.00 0.00 89 1008.9
20260906043058 24 129 9.7 14.5 0.00 0.00 0.00 89 1009.1
20260906041509 24 101 9.7 14.5 0.00 0.00 0.00 88 1009.2
20260906040039 24 123 8.0 12.9 0.00 0.00 0.00 87 1009.2
20260906034526 24 113 8.0 14.5 0.00 0.00 0.00 86 1009.0
20260906033014 25 115 11.3 16.1 0.00 0.00 0.00 85 1009.0
20260906031604 25 109 9.7 14.5 0.00 0.00 0.00 85 1009.3
20260906030049 25 117 8.0 12.9 0.00 0.00 0.00 84 1009.5
20260906024546 25 117 9.7 14.5 0.00 0.00 0.00 83 1009.2
20260906023026 25 133 9.7 16.1 0.00 0.00 0.00 83 1009.0
20260906021512 25 139 9.7 16.1 0.00 0.00 0.00 83 1008.8
20260906014519 26 119 8.0 14.5 0.00 0.00 0.00 81 1008.1
20260906013042 26 88 9.7 14.5 0.00 0.00 0.00 80 1007.9
20260906011512 26 76 8.0 14.5 0.00 0.00 0.00 80 1007.7
20260906010101 27 92 6.4 12.9 0.00 0.00 0.00 80 1007.7
20260906004551 27 84 4.8 6.4 0.00 0.00 0.00 79 1007.5
20260906003035 28 100 4.8 6.4 0.00 0.00 0.00 75 1007.2
20260906001513 28 95 3.2 6.4 0.00 0.00 0.00 71 1007.1
20260906000046 29 126 8.0 12.9 0.00 0.00 0.00 70 1006.8
20260905234514 30 119 11.3 14.5 0.00 0.00 0.00 70 1006.7
20260905233104 29 102 3.2 6.4 0.00 0.00 0.00 72 1007.1
20260905231525 29 166 4.8 11.3 0.00 0.00 0.00 71 1007.2
20260905230048 28 153 6.4 12.9 0.00 0.00 0.00 73 1006.7
20260905224533 29 153 9.7 17.7 0.00 0.00 0.00 72 1006.5
20260905223018 29 123 4.8 8.0 0.00 0.00 0.00 73 1006.8
20260905221504 29 163 6.4 9.7 0.00 0.00 0.00 70 1006.8
20260905220054 30 180 6.4 11.3 0.00 0.00 0.00 67 1006.9
20260905214541 30 200 3.2 8.0 0.00 0.00 0.00 65 1007.2
20260905213027 30 216 4.8 11.3 0.00 0.00 0.00 64 1007.5
20260905211516 30 221 8.0 16.1 0.00 0.00 0.00 65 1007.2
20260905210105 30 223 11.3 20.9 0.00 0.00 0.00 65 1007.1
20260905204526 30 183 11.3 29.0 0.00 0.00 0.00 67 1006.8
20260905203043 29 176 22.5 37.0 0.00 0.00 0.00 65 1006.8
20260905201523 28 211 22.5 32.2 0.00 0.00 0.00 66 1006.7